Location: Sewell
(39.7660°N, 75.1450°W)
Time: 11:19:11
(UTC-04:00)

ISS - Visible Passes

Search period start: 29 March 2017 00:00
Search period end: 08 April 2017 00:00
Orbit: 399 x 409 km, 51.6° (Epoch: 30 March)

Date Brightness Start Highest point End Pass type
(mag) Time Alt. Az. Time Alt. Az. Time Alt. Az.
29 Mar -3.5 20:16:12 10° WSW 20:19:26 66° NW 20:22:41 10° NE visible
29 Mar -0.8 21:54:22 10° NW 21:55:50 15° NNW 21:55:50 15° NNW visible
30 Mar -1.4 21:01:16 10° WNW 21:03:48 21° NNW 21:06:02 12° NNE visible
31 Mar -2.0 20:08:19 10° W 20:11:15 30° NNW 20:14:13 10° NE visible
31 Mar -0.7 21:47:17 10° NNW 21:48:32 12° N 21:48:44 12° N visible
01 Apr -1.0 20:54:00 10° NW 20:55:50 14° NNW 20:57:41 10° NNE visible
02 Apr -1.3 20:00:48 10° WNW 20:03:10 18° NNW 20:05:33 10° NNE visible
02 Apr -0.8 21:40:00 10° NNW 21:40:40 10° N 21:41:05 10° N visible
03 Apr -0.9 20:46:50 10° NNW 20:47:54 11° N 20:48:57 10° NNE visible
04 Apr -0.9 21:31:40 10° NNW 21:32:45 11° N 21:33:06 11° NNE visible
05 Apr -0.9 20:39:18 10° N 20:39:57 10° N 20:40:37 10° NNE visible
05 Apr -0.5 22:15:02 10° NNW 22:15:22 12° NNW 22:15:22 12° NNW visible
06 Apr -1.3 21:22:52 10° NNW 21:24:44 14° NNE 21:24:58 14° NNE visible
07 Apr -1.1 20:30:42 10° NNW 20:31:57 12° N 20:33:13 10° NNE visible
07 Apr -0.9 22:06:14 10° NW 22:07:12 16° NNW 22:07:12 16° NNW visible
